{"data":{"norad_id":67036,"intl_designator":"2025-294G","name":"STARLINK-36125","alt_names":[],"object_type":"PAYLOAD","status":"ACTIVE","operator":null,"country":"US","launch_date":"2025-12-11","launch_site_code":"AFETR","launch_vehicle":null,"mission":null,"orbit_class":"UNKNOWN","rcs_meters":null,"size_class":null,"mass_kg":null,"dimensions":null,"purposes":["comms"],"wikipedia_slug":null,"has_3d_model":false,"image_url":null,"decayed_at":null,"tle_current":{"epoch":"2026-09-20T08:53:36.330432Z","epoch_age_seconds":92890,"freshness":"FRESH","line1":"1 67036U 25294G   26263.37055938  .00016603  00000+0  61134-3 0  9996","line2":"2 67036  43.0015  18.5725 0000953 275.4818  84.5925 15.27588355 44579","mean_motion":15.27588355,"eccentricity":9.53e-5,"inclination_deg":43.0015,"raan_deg":18.5725,"arg_perigee_deg":275.4818,"mean_anomaly_deg":84.5925,"bstar":0.00061134,"rev_number":4457,"period_min":94.266233130587,"perigee_km":482.37020962723,"apogee_km":483.67794692874,"semimajor_km":6861.161078278,"source":"CELESTRAK","updated_at":"2026-09-21T09:00:36.092223Z"}}}